Location: Houston
(29.7630°N, 95.3630°W)
Time: 10:04:57
(UTC-05:00)

Daily predictions for brighter satellites

Satellite Brightness Start Highest point End
(mag) Time Altitude Azimuth Time Altitude Azimuth Time Altitude Azimuth
Cosmos 1470 Rocket 3.9 20:12:49 10° N 20:17:07 70° W 20:21:24 10° S
Cosmos 2360 4.2 20:15:06 10° S 20:20:46 70° ESE 20:26:27 10° NNE
Cosmos 1151 Rocket 4.0 20:17:01 10° SSW 20:21:15 52° W 20:25:29 10° N
Atlas Centaur 2 3.1 20:16:28 10° SW 20:22:34 45° SSE 20:29:57 10° E
Molniya-1 2.7 20:25:50 10° SW 20:27:24 57° WNW 20:29:03 10° NNE
SL-8 R/B 4.1 20:24:53 10° NW 20:29:34 50° NE 20:33:57 11° ESE
Cosmos 1455 2.2 20:30:02 10° S 20:33:47 61° E 20:37:31 10° NNE
Helios 1A 4.4 20:36:34 13° ESE 20:39:09 21° ENE 20:42:19 10° NNE
DELTA 2 R/B (1) 4.0 20:39:34 10° NW 20:45:05 53° NNE 20:49:34 15° E
Cosmos 1869 3.6 20:43:02 10° SSE 20:46:46 44° E 20:50:31 10° NNE
Spot 2 Rocket 3.5 20:43:25 10° SSE 20:48:26 66° ENE 20:53:30 10° N
CZ-3B DEB 0.4 20:45:23 10° NW 20:49:11 66° NE 20:50:21 26° SE
Resurs 01 Rocket 1.6 20:46:01 10° SSE 20:50:26 77° ENE 20:54:54 10° N
SJ-6B 4.3 20:47:53 10° SSW 20:51:30 38° W 20:55:14 10° NNW
OAO 3 Rocket 4.0 20:46:56 10° W 20:51:41 51° N 20:56:30 10° ENE
FENGYUN 3A 4.3 20:47:58 10° S 20:53:14 58° W 20:58:31 10° NNW
Cosmos 1892 2.9 20:53:57 10° N 20:57:44 73° W 21:01:31 10° S
GRACE-1 3.6 20:55:30 10° N 20:58:13 80° E 21:00:31 14° S
GRACE-2 3.6 20:55:53 10° N 20:58:38 79° E 21:00:51 14° S
FALCON 9 R/B 1.8 20:56:52 10° WNW 20:59:28 31° N 21:00:46 17° NE
Cosmos 2297 Rocket 4.0 20:54:52 10° NW 20:59:44 31° WSW 21:04:36 10° SSW
Cosmos 1400 Rocket 3.3 20:56:44 10° NNW 21:00:35 60° W 21:04:27 10° S
H-2A R/B 3.4 20:57:42 10° S 21:01:32 56° W 21:05:23 10° NNW
Meteor 1-29 3.2 21:01:11 10° NNE 21:04:32 46° E 21:06:41 19° SSE
Cosmos 2142 Rocket 4.4 20:59:13 10° S 21:05:16 72° E 21:11:23 10° N
Cosmos 2322 Rocket 2.1 21:00:46 10° SSW 21:06:20 75° ESE 21:11:56 10° NNE
Cosmos 2263 Rocket 3.8 21:03:52 10° NNE 21:07:15 16° ENE 21:08:25 15° ENE
Envisat 3.5 21:05:47 23° SE 21:08:25 41° ENE 21:13:09 10° N
Cosmos 1933 4.2 21:11:30 29° E 21:11:30 29° E 21:14:54 10° NNE
Cosmos 1315 Rocket 2.8 21:10:14 10° N 21:14:18 86° W 21:17:08 19° S
Cosmos 2360 Rocket 2.9 21:15:49 28° ESE 21:16:51 30° ESE 21:21:43 10° NE
Cosmos 1980 Rocket 4.5 21:13:01 10° WSW 21:17:44 27° WNW 21:22:31 10° N
OTV 4 0.7 21:17:24 10° WNW 21:20:12 53° SSW 21:20:12 53° SSW
CZ-2D R/B 4.2 21:18:20 10° S 21:22:06 47° W 21:25:51 10° NNW
GENESIS II 4.5 21:21:51 10° SSW 21:25:52 71° WNW 21:29:54 10° NNE
USA 234 3.9 21:22:52 25° E 21:26:04 40° NE 21:32:05 10° NNW
CZ-3 Stage 3 3.9 20:57:25 10° WNW 21:27:11 46° SW 21:31:31 22° SSE
Cosmos 1825 2.3 21:23:32 10° N 21:27:15 53° E 21:27:16 53° E
SEDSat Delta rocket 3.5 21:22:02 10° W 21:27:21 88° N 21:30:34 29° ENE
Cosmos 2026 Rocket 3.9 21:24:46 10° N 21:30:58 71° E 21:34:22 28° SSE
SL-16 R/B 2.7 21:28:29 10° SSW 21:34:03 62° WNW 21:39:41 10° NNE
USA 186 3.1 21:34:17 26° WSW 21:34:41 28° W 21:37:06 10° NW
GPS 2-04 Rocket1 3.9 21:32:49 10° W 21:35:59 28° SSW 21:36:04 28° SSW
ATLAS CENTAUR R/B 3.6 21:33:00 10° WNW 21:36:29 42° SW 21:42:08 18° SSE
Cosmos 1862 3.8 21:37:04 10° N 21:40:18 46° NE 21:40:18 46° NE
ERS-1 Rocket 3.5 21:42:09 40° ENE 21:42:09 40° ENE 21:46:46 10° N
SAR-Lupe-4 4.1 21:42:20 50° SW 21:42:50 56° W 21:46:22 10° NNW
Helios 1B rocket 4.0 21:39:33 10° N 21:43:20 36° WNW 21:47:04 10° SW
Cosmos 1939 Rocket 2.7 21:44:20 81° SSE 21:44:32 88° ENE 21:48:35 10° N
Intercosmos 25 Rocket 4.2 21:43:45 26° SW 21:45:03 39° W 21:48:14 10° N
Skynet4D Del rocket 4.4 21:37:13 10° WSW 21:45:26 72° S 21:48:17 42° ESE
Lacrosse 4 Rocket 2.0 21:41:20 10° N 21:45:08 46° NE 21:45:08 46° NE
ATLAS 5 CENTAUR R/B 3.9 21:42:30 10° N 21:47:04 21° NE 21:47:45 21° ENE
ERBS 3.7 21:43:45 10° NNW 21:46:04 33° N 21:46:04 33° N
Milstar 3 2.7 21:43:33 10° W 21:51:16 74° S 21:53:09 49° ESE
Cosmos 1733 Rocket 3.0 21:47:04 10° N 21:51:22 78° NE 21:51:22 78° NE
Cosmos 1862 Rocket 3.8 21:50:04 40° SSW 21:51:35 69° W 21:56:02 10° N
ARGOS 4.5 21:52:58 24° NE 21:52:58 24° NE 21:56:17 10° NNE
Sakura Rocket 3.9 21:48:12 10° WSW 21:50:46 36° SW 21:50:46 36° SW
SeaSat 1 4.2 21:57:02 20° NE 21:57:02 20° NE 21:59:44 10° N
Cosmos 1655 Rocket 4.0 21:51:44 10° N 21:58:09 85° W 22:00:35 41° S
Meteor 1-26 Rocket 4.2 21:58:32 61° E 21:58:32 61° E 22:04:01 10° NNE
Cosmos 1408 3.8 21:58:44 10° NNW 22:01:58 39° W 22:01:58 39° W
USA 229 DEB 3.5 22:00:29 10° SSW 22:07:14 75° ESE 22:14:07 10° NNE
USA 229 3.5 22:00:35 10° SSW 22:07:20 74° ESE 22:14:12 10° NNE
Atlas Centaur 2 2.8 22:04:42 10° WSW 22:12:01 84° SSE 22:14:11 54° E
Cosmos 2266 Rocket 4.3 22:12:52 10° N 22:18:12 53° NE 22:18:12 53° NE
H-2A R/B 3.9 22:33:27 21° NNE 22:33:27 21° NNE 22:35:18 10° N
OAO 3 Rocket 4.5 22:30:56 10° WNW 22:34:27 39° NW 22:34:27 39° NW
SPOT 5 4.4 22:43:25 32° N 22:43:25 32° N 22:45:55 10° NNW
COSMOS 2428 4.5 22:52:07 23° NNE 22:52:07 23° NNE 22:54:12 10° NNE
H-2A R/B 3.7 14:48:14 10° SW 22:49:41 84° S 22:51:34 65° ESE
Cosmos 2263 Rocket 3.1 22:46:02 10° NNW 22:50:08 43° WNW 22:50:08 43° WNW
Cosmos 2360 Rocket 4.0 22:57:15 16° WSW 23:00:44 27° WNW 23:05:30 10° N
USA 234 4.1 23:10:13 41° W 23:10:13 41° W 23:15:09 10° NW
ATLAS 5 CENTAUR R/B 3.9 23:25:57 10° NW 23:29:18 34° NW 23:29:18 34° NW
